User: anonymous   Login
Location: Unspecified
(0.0000°N, 0.0000°E)
Time: 09:23:30
(UTC+00:00)
Language:

UME 1 - Orbit

View from above orbital plane
View from above orbital plane
View from above satellite
View from above satellite

Ground track
Ground track

The orbit data is extracted from the following two-line orbital elements,

1 08709U 76019A   17327.88923365 -.00000044  00000-0  90312-5 0  9990
2 08709  69.6722 171.6487 0008307  52.1087  41.8193 13.71389526 88550
Epoch (UTC): 23 November 2017 21:20:29
Eccentricity: 0.0008307
inclination: 69.6722°
perigee height: 988 km
apogee height: 1001 km
right ascension of ascending node: 171.6487°
argument of perigee: 52.1087°
revolutions per day: 13.71389526
mean anomaly at epoch: 41.8193°
orbit number at epoch: 8855

The dashed part of the orbit path shows where the satellite is in the earth's shadow,  

DLR